Wind_Speed
10 8 7 6 5 5 5 5 5 5 4 4 6 7 7 7 7 8 10 9 15 8 11 6 10 13 14 18 10 8 8 6 2 2 7 12 11 10 13 14 5 14 23 23 27
12 10 8 7 6 6 6 6 6 6 5 5 6 7 7 7 9 14 12 12 14 11 12 9 12 11 5 20 21 1 2 3 2 2 12 11 12 13 14 17 23 28 26 22 30
12 10 9 9 8 8 7 7 6 6 5 5 6 7 7 7 7 9 17 17 14 13 14 14 15 5 7 13 26 6 3 9 6 23 28 19 11 20 14 10 23 26 24 22 24
12 10 9 9 8 8 8 7 5 4 3 4 6 8 8 8 3 5 10 13 12 13 11 12 12 4 8 10 20 6 6 18 20 28 18 6 14 11 13 8 20 23 22 21 21
14 12 9 8 8 9 9 9 5 2 1 3 6 8 8 8 14 6 10 13 13 14 11 11 14 10 4 7 1 5 7 3 7 7 15 11 4 14 14 19 21 21 19 19 19
15 13 10 8 8 8 9 7 6 6 5 4 4 7 7 12 2 3 9 12 11 13 12 11 11 3 10 4 6 11 8 3 3 9 19 12 10 10 17 18 21 20 19 17 21
16 14 11 8 8 8 8 6 1 3 4 3 2 5 8 14 2 3 10 12 12 13 13 12 10 6 2 6 18 15 5 2 4 4 6 17 1 6 10 19 17 22 21 16 20
16 14 12 10 8 7 7 5 3 3 1 0 2 5 9 9 6 10 10 13 14 13 13 12 9 11 5 6 12 15 3 2 4 9 11 8 10 20 27 11 16 20 18 18 27
17 15 14 11 9 8 7 7 5 7 5 4 3 5 17 10 11 12 13 15 15 15 14 12 12 16 21 4 8 4 12 6 3 13 2 0 2 25 25 17 19 22 21 18 11
18 16 14 12 9 9 8 9 6 7 8 9 10 8 16 11 10 11 13 13 14 14 14 15 16 4 9 10 4 3 13 10 10 15 7 6 9 12 11 4 5 22 19 25 20
19 17 14 12 10 9 10 10 5 6 14 17 12 13 7 5 10 11 13 12 14 15 13 17 13 8 15 17 19 18 10 6 11 9 9 7 9 12 16 25 23 6 12 22 23
20 18 15 12 10 10 12 9 11 9 11 26 18 16 3 9 10 13 14 14 16 14 13 14 12 8 12 20 19 16 15 8 12 13 12 10 7 10 11 26 26 23 23 21 25
21 20 16 14 10 12 16 17 13 10 14 18 21 14 13 9 14 16 17 17 14 14 15 15 16 7 5 14 16 14 13 11 8 14 13 8 6 14 22 20 23 12 8 12 18
21 20 17 12 7 5 12 13 11 9 8 12 14 13 14 14 11 16 17 16 15 13 15 15 13 13 3 10 12 11 9 8 14 9 2 3 1 8 13 10 12 19 25 16 20
21 19 15 9 7 4 4 6 6 7 6 14 16 8 16 19 16 16 16 19 16 13 11 14 14 10 13 12 12 2 7 11 7 12 8 9 4 7 5 6 15 22 30 34 29
19 19 13 5 9 11 3 5 5 7 10 11 11 11 15 18 11 13 18 17 14 14 14 17 19 9 12 13 9 11 8 12 8 12 8 16 18 9 9 9 13 21 26 27 36
16 16 9 9 2 3 7 8 6 9 6 10 16 12 15 15 15 10 12 15 13 12 15 16 15 8 13 7 10 9 14 5 5 5 4 6 7 7 17 22 21 24 18 19 17
13 10 4 6 7 6 7 9 11 11 17 4 10 14 14 16 13 13 12 13 17 20 14 11 14 15 13 15 4 12 12 2 3 2 7 8 2 10 14 33 38 30 27 18 8
12 4 2 3 4 8 13 12 10 16 12 13 6 10 16 15 15 15 16 16 17 17 17 16 13 17 17 11 11 12 7 16 13 17 10 8 10 13 12 13 11 12 12 4 3
12 3 9 4 5 9 10 16 16 18 9 11 13 9 14 13 14 15 14 15 16 16 16 20 13 13 13 11 12 13 9 9 5 6 5 4 12 11 10 9 10 9 10 7 4
8 6 4 3 6 11 10 14 17 22 9 10 15 17 16 15 16 16 14 14 14 14 13 15 16 6 11 9 12 11 12 12 13 6 4 3 3 4 8 8 8 10 16 9 2
6 5 3 5 9 11 12 17 20 16 7 8 13 17 18 19 14 17 19 15 6 9 12 14 11 9 17 13 15 15 10 13 10 4 5 4 7 11 6 7 14 16 10 8 3
11 14 2 5 7 9 15 14 14 13 11 15 13 16 16 17 15 18 16 15 10 11 8 13 11 12 9 9 13 9 12 14 11 5 7 6 6 6 6 10 11 15 14 11 4
9 5 3 6 13 14 14 16 16 10 11 20 15 15 15 16 14 15 16 15 15 8 3 6 12 13 13 12 6 14 14 14 14 12 8 6 13 6 14 12 10 14 14 15 8
8 7 14 7 11 14 13 16 16 17 14 10 13 16 14 15 13 17 16 17 10 7 7 3 10 17 20 12 8 6 18 26 12 10 12 7 4 10 9 13 12 16 12 7 8
10 10 18 22 21 16 12 13 16 17 14 17 11 15 12 17 17 16 13 16 16 9 5 13 12 16 21 8 11 7 12 33 10 10 8 11 3 20 19 16 17 15 18 10 9
14 12 11 13 16 14 11 13 13 15 13 18 15 14 17 6 14 15 17 16 12 11 6 9 10 12 18 20 5 6 18 25 11 11 10 10 7 9 15 13 8 14 15 13 11
Wind_Direction
17 14 8 3 355 338 328 314 303 295 285 258 242 243 242 244 242 244 240 240 231 260 208 207 233 248 248 273 243 311 284 340 204 268 60 128 97 69 103 148 91 125 134 134 139
24 24 21 15 3 347 330 313 299 291 283 260 236 231 230 243 250 248 235 240 246 239 211 219 223 232 351 308 312 100 17 113 321 28 262 120 124 148 165 108 96 105 122 137 138
20 18 13 7 2 354 337 317 299 286 276 256 228 217 214 230 271 246 227 241 238 217 210 246 276 61 126 276 285 51 65 89 275 225 242 247 97 56 97 142 132 128 138 148 141
15 10 6 7 12 14 8 351 322 294 266 236 212 205 206 219 264 187 214 227 210 196 225 261 261 225 43 298 294 109 85 144 206 230 258 100 123 95 128 193 127 140 148 149 147
9 3 1 3 6 11 16 16 11 10 175 190 202 200 206 239 249 269 223 205 205 202 227 251 261 83 212 249 271 110 124 29 358 317 93 252 135 148 133 120 136 142 154 147 146
7 359 351 350 352 358 6 15 40 72 90 117 175 205 215 253 169 299 213 204 200 213 240 249 271 280 175 328 141 110 128 163 12 342 66 169 319 111 128 132 137 152 147 144 142
4 358 345 334 332 343 352 347 1 101 95 100 171 224 253 253 213 273 191 212 220 226 247 243 273 299 105 326 107 131 111 333 191 5 27 117 161 29 302 136 152 150 141 158 157
356 353 346 328 316 323 343 343 284 241 208 199 235 234 251 212 226 225 218 221 229 235 246 285 295 285 118 116 23 4 137 10 328 298 154 134 106 290 260 175 150 144 163 166 163
349 346 341 331 309 304 316 324 273 237 239 249 236 248 262 220 221 227 213 218 223 235 245 260 279 273 101 173 56 348 290 173 121 247 211 188 181 205 247 179 162 163 160 152 126
343 341 336 327 307 286 291 300 282 230 233 255 230 259 235 242 215 209 204 213 222 227 240 246 254 241 64 56 51 280 277 176 163 199 193 189 201 245 252 245 279 176 170 136 162
337 335 333 317 305 272 272 297 253 230 215 225 172 229 160 226 176 198 195 214 217 225 235 233 239 246 161 163 169 200 227 175 146 187 183 176 6 201 183 146 242 148 253 168 170
333 329 326 311 297 270 244 238 302 318 288 231 247 236 293 173 190 202 193 210 207 224 225 257 229 244 152 174 201 198 227 104 139 165 184 145 193 269 190 179 196 193 220 166 152
329 327 321 309 290 268 236 245 296 303 292 275 217 224 213 194 208 196 193 210 204 231 235 253 266 160 166 210 242 215 156 167 175 157 86 80 349 328 298 166 186 182 184 185 193
325 323 321 308 299 281 240 247 262 292 286 208 191 218 183 206 227 191 200 211 244 236 238 257 259 285 251 246 267 279 310 123 156 130 150 214 41 288 266 214 207 170 181 242 169
321 318 319 289 258 237 349 208 236 271 284 127 176 180 175 204 193 190 198 224 246 235 256 253 245 265 266 261 252 218 195 254 225 149 155 200 143 241 266 269 182 174 189 204 215
318 315 315 278 251 216 261 242 247 238 250 164 139 181 182 221 202 142 198 217 238 265 254 264 292 262 249 234 269 306 298 256 249 203 197 210 197 174 164 135 328 272 208 210 195
317 311 290 233 174 218 237 221 223 251 223 168 166 187 209 200 236 162 203 203 229 225 249 234 255 234 273 276 230 223 246 215 327 253 321 213 255 125 155 155 189 222 239 256 221
320 312 277 227 232 253 204 219 240 248 240 272 172 188 205 225 215 173 196 222 220 249 261 214 222 223 214 248 314 260 273 302 282 259 244 276 211 162 177 161 192 201 196 191 217
330 313 236 345 214 209 214 222 222 263 311 321 200 211 201 231 232 191 201 220 223 211 257 271 233 193 204 223 215 258 261 276 273 272 203 163 125 146 125 138 146 162 121 197 109
347 270 225 233 201 192 230 243 249 253 296 301 295 228 258 223 235 225 229 214 241 233 210 263 281 159 184 208 245 269 316 290 271 276 325 49 47 123 154 151 155 141 162 150 114
333 260 140 183 181 224 234 243 250 262 259 277 273 277 272 240 240 232 226 249 228 240 217 247 268 189 270 196 241 214 238 252 272 279 257 257 118 307 125 161 181 128 110 109 49
324 286 121 189 219 230 246 250 262 286 256 239 269 281 287 291 274 262 246 238 223 206 209 221 256 238 217 230 214 243 239 223 239 255 29 359 234 115 143 147 136 122 112 94 93
315 293 237 215 252 251 266 242 276 293 275 266 244 253 275 274 284 287 294 263 258 206 254 222 227 260 255 332 261 208 215 253 268 249 246 269 211 206 150 141 133 137 134 146 156
305 306 209 225 256 281 290 299 305 263 251 282 287 277 264 267 263 278 283 281 290 242 6 338 270 262 262 198 85 307 256 243 239 247 245 117 119 166 165 144 149 143 151 162 161
312 340 9 299 319 341 321 312 303 297 281 226 273 268 271 273 264 257 260 268 283 254 291 262 268 271 276 162 205 236 311 298 222 260 277 120 205 177 154 155 163 159 150 166 151
355 339 328 298 288 281 276 267 272 279 275 282 231 262 272 254 259 277 290 266 261 231 288 244 248 265 271 210 176 136 232 259 250 272 253 275 220 178 164 145 162 155 148 170 166
345 326 308 299 294 286 288 305 306 320 293 304 306 303 292 303 347 330 321 300 304 310 310 305 262 259 264 261 124 257 259 279 246 236 243 246 254 106 142 143 152 151 153 164 167
Height
1507 1505 1504 1504 1503 1502 1501 1501 1500 1499 1499 1499 1499 1499 1499 1499 1499 1498 1497 1497 1497 1496 1495 1496 1496 1496 1494 1489 1487 1489 1492 1503 1509 1510 1490 1488 1488 1492 1494 1496 1499 1501 1510 1519 1524
1508 1506 1505 1504 1503 1502 1501 1500 1499 1498 1498 1498 1498 1498 1498 1498 1497 1495 1496 1495 1495 1495 1495 1496 1494 1492 1493 1495 1492 1487 1499 1508 1509 1506 1502 1487 1490 1492 1492 1495 1500 1506 1515 1521 1523
1509 1507 1506 1505 1503 1502 1500 1499 1498 1497 1497 1497 1497 1497 1497 1497 1497 1491 1491 1493 1493 1493 1494 1495 1493 1492 1497 1503 1492 1490 1501 1512 1507 1503 1503 1493 1490 1493 1492 1498 1501 1509 1516 1521 1524
1511 1509 1507 1505 1504 1502 1500 1498 1497 1496 1496 1496 1496 1496 1496 1496 1493 1489 1489 1491 1491 1492 1495 1496 1494 1495 1504 1509 1495 1498 1501 1504 1507 1500 1500 1487 1490 1496 1498 1499 1502 1510 1515 1518 1523
1511 1509 1507 1506 1504 1502 1501 1499 1497 1496 1496 1496 1496 1496 1496 1497 1490 1489 1488 1489 1490 1492 1495 1495 1490 1495 1507 1505 1494 1494 1501 1502 1501 1495 1493 1493 1494 1495 1495 1498 1504 1510 1514 1518 1523
1512 1510 1507 1506 1504 1503 1501 1500 1499 1498 1497 1496 1496 1496 1497 1496 1488 1488 1488 1489 1490 1492 1494 1494 1489 1487 1496 1495 1488 1494 1502 1502 1500 1497 1505 1505 1501 1495 1497 1501 1505 1510 1514 1519 1522
1513 1510 1508 1506 1504 1503 1502 1500 1500 1499 1499 1498 1497 1497 1498 1492 1490 1486 1488 1489 1491 1492 1492 1489 1489 1488 1490 1498 1489 1494 1500 1503 1499 1499 1508 1505 1513 1510 1503 1503 1506 1509 1514 1519 1521
1512 1510 1507 1506 1504 1503 1502 1500 1499 1499 1499 1498 1498 1497 1494 1489 1489 1489 1489 1490 1491 1491 1491 1488 1488 1487 1487 1505 1505 1514 1501 1509 1500 1504 1503 1505 1527 1508 1505 1503 1506 1509 1514 1517 1521
1512 1509 1507 1505 1503 1502 1501 1500 1499 1498 1499 1498 1498 1498 1491 1486 1487 1486 1487 1488 1489 1490 1490 1489 1489 1483 1498 1508 1515 1523 1524 1505 1507 1504 1495 1497 1517 1512 1507 1501 1505 1508 1512 1518 1523
1511 1508 1506 1504 1502 1501 1500 1499 1498 1497 1498 1497 1497 1502 1487 1483 1482 1484 1486 1487 1487 1488 1488 1487 1484 1483 1496 1509 1535 1535 1531 1501 1501 1500 1502 1503 1505 1502 1502 1505 1507 1509 1509 1517 1523
1509 1506 1504 1502 1500 1499 1499 1497 1499 1497 1496 1489 1485 1481 1475 1479 1481 1483 1485 1486 1485 1485 1483 1479 1480 1478 1498 1499 1500 1503 1508 1488 1488 1494 1497 1498 1506 1497 1500 1506 1510 1508 1512 1512 1520
1507 1504 1501 1499 1497 1496 1496 1495 1489 1489 1484 1481 1481 1478 1477 1478 1481 1482 1484 1484 1482 1482 1479 1476 1477 1463 1470 1481 1484 1487 1494 1479 1483 1492 1493 1499 1507 1499 1494 1499 1500 1504 1511 1514 1519
1504 1501 1498 1495 1493 1492 1492 1490 1490 1489 1484 1472 1473 1475 1477 1480 1478 1478 1482 1481 1478 1478 1474 1474 1460 1457 1464 1471 1466 1460 1484 1478 1485 1484 1502 1511 1526 1522 1499 1494 1501 1504 1505 1509 1518
1501 1498 1495 1493 1493 1490 1489 1489 1490 1489 1484 1462 1468 1470 1473 1476 1474 1475 1479 1480 1474 1474 1470 1466 1460 1460 1465 1468 1461 1468 1459 1461 1469 1485 1514 1500 1545 1523 1503 1493 1498 1501 1504 1507 1512
1498 1494 1492 1490 1489 1489 1487 1488 1489 1489 1500 1457 1461 1464 1468 1471 1465 1471 1475 1477 1473 1469 1469 1467 1462 1463 1465 1464 1456 1461 1459 1459 1459 1477 1494 1499 1522 1498 1498 1501 1495 1501 1499 1497 1503
1494 1490 1488 1487 1487 1486 1488 1489 1489 1490 1489 1453 1457 1463 1465 1466 1463 1467 1471 1476 1473 1471 1464 1463 1456 1456 1458 1455 1453 1453 1456 1454 1455 1459 1493 1482 1494 1480 1498 1510 1503 1497 1493 1495 1497
1490 1487 1485 1484 1486 1487 1488 1489 1489 1488 1443 1449 1453 1456 1459 1462 1461 1464 1470 1473 1477 1484 1477 1463 1461 1455 1454 1456 1452 1455 1460 1479 1493 1475 1482 1462 1468 1475 1475 1485 1491 1485 1496 1489 1492
1486 1483 1483 1482 1483 1486 1488 1486 1492 1456 1453 1434 1442 1450 1460 1454 1456 1459 1467 1472 1468 1465 1463 1470 1475 1454 1452 1456 1461 1455 1454 1480 1507 1496 1509 1461 1472 1478 1463 1469 1479 1482 1485 1486 1487
1483 1483 1481 1481 1482 1485 1486 1485 1474 1458 1443 1441 1441 1450 1453 1450 1450 1452 1459 1461 1456 1458 1470 1460 1456 1438 1445 1450 1452 1459 1467 1447 1460 1446 1466 1460 1460 1455 1458 1464 1469 1470 1477 1481 1483
1482 1481 1481 1481 1482 1485 1482 1477 1459 1451 1446 1449 1457 1445 1453 1446 1450 1450 1449 1446 1449 1445 1449 1450 1460 1435 1442 1446 1448 1451 1448 1465 1453 1478 1482 1474 1483 1476 1468 1467 1467 1468 1472 1480 1486
1484 1479 1478 1481 1482 1483 1477 1467 1458 1452 1453 1456 1457 1453 1445 1446 1441 1444 1446 1441 1438 1442 1442 1446 1449 1452 1444 1449 1455 1455 1461 1457 1451 1455 1485 1485 1494 1463 1465 1464 1466 1470 1476 1482 1487
1487 1476 1477 1480 1481 1473 1468 1461 1455 1451 1449 1454 1456 1452 1448 1443 1439 1440 1441 1437 1434 1438 1445 1445 1448 1456 1454 1438 1440 1442 1445 1449 1465 1470 1458 1468 1505 1458 1463 1463 1465 1472 1479 1484 1488
1490 1480 1476 1478 1475 1463 1454 1451 1450 1453 1452 1453 1452 1451 1447 1447 1452 1442 1436 1432 1435 1438 1441 1442 1452 1465 1461 1455 1438 1445 1444 1443 1442 1444 1473 1482 1501 1467 1467 1467 1469 1474 1480 1487 1490
1495 1477 1471 1473 1472 1468 1464 1457 1451 1450 1455 1453 1448 1448 1447 1447 1443 1447 1442 1435 1434 1437 1440 1441 1443 1449 1460 1461 1467 1478 1446 1441 1444 1456 1454 1464 1470 1466 1465 1468 1472 1474 1479 1484 1489
1497 1484 1487 1478 1467 1470 1470 1467 1461 1457 1448 1451 1454 1452 1452 1454 1450 1449 1444 1440 1437 1439 1441 1443 1456 1447 1440 1442 1449 1461 1466 1456 1446 1445 1456 1467 1467 1473 1460 1467 1471 1474 1479 1484 1488
1507 1505 1496 1489 1480 1473 1469 1467 1464 1457 1453 1450 1449 1450 1449 1453 1450 1450 1443 1440 1440 1437 1440 1441 1455 1448 1447 1440 1452 1471 1480 1449 1439 1441 1442 1446 1451 1454 1459 1464 1468 1471 1478 1485 1489
1512 1509 1504 1490 1482 1472 1463 1460 1457 1456 1455 1453 1452 1451 1450 1447 1447 1448 1449 1448 1445 1446 1448 1450 1447 1455 1455 1438 1447 1477 1458 1453 1437 1436 1440 1454 1446 1444 1455 1463 1467 1471 1478 1483 1488